GW2280 Weather Reports


Display with metric or nautical units.
time (UTC)temp
F
wind
direction
speed
MPH
gust
MPH
rain 1hr
in
rain 24hr
in
rain mn
in
humidity
%
barometer
mb
20260504183030 64 263 14.0 26.0 0.00 0.00 0.00 41 1007.4
20260504182514 64 290 15.0 35.0 0.00 0.00 0.00 41 1007.3
20260504182011 64 270 14.0 35.0 0.00 0.00 0.00 42 1007.2
20260504181534 64 283 8.0 22.0 0.00 0.00 0.00 42 1007.3
20260504181013 64 277 9.0 24.0 0.00 0.00 0.00 42 1007.3
20260504180513 64 247 12.0 24.0 0.00 0.00 0.00 40 1007.1
20260504180030 64 247 12.0 21.0 0.00 0.00 0.00 40 1007.2
20260504175511 64 270 6.0 26.0 0.00 0.00 0.00 40 1007.3
20260504175012 64 281 10.0 26.0 0.00 0.00 0.00 41 1007.3
20260504174532 64 236 14.0 26.0 0.00 0.00 0.00 41 1007.3
20260504174013 63 221 13.0 27.0 0.00 0.00 0.00 40 1007.3
20260504173512 64 246 16.0 27.0 0.00 0.00 0.00 40 1007.4
20260504173029 64 217 9.0 26.0 0.00 0.00 0.00 41 1007.3
20260504172512 64 269 12.0 26.0 0.00 0.00 0.00 39 1007.5
20260504172013 65 266 13.0 25.0 0.00 0.00 0.00 39 1007.4
20260504171529 65 340 13.0 26.0 0.00 0.00 0.00 39 1007.2
20260504171015 65 248 16.0 32.0 0.00 0.00 0.00 38 1007.3
20260504170511 65 254 15.0 34.0 0.00 0.00 0.00 38 1007.4
20260504151015 62 254 13.0 27.0 0.00 0.00 0.00 48 1008.0
20260504150512 61 241 13.0 27.0 0.00 0.00 0.00 46 1008.1
20260504141012 57 265 12.0 23.0 0.00 0.00 0.00 53 1009.0
20260504140510 57 273 14.0 23.0 0.00 0.00 0.00 54 1009.0
20260504130513 54 242 7.0 18.0 0.00 0.00 0.00 60 1009.5
20260504110512 43 254 10.0 18.0 0.00 0.00 0.00 72 1010.1
20260504100511 40 236 8.0 14.0 0.00 0.00 0.00 73 1010.0
20260504081529 41 265 11.0 19.0 0.00 0.00 0.00 66 1009.9
20260504081012 41 265 9.0 17.0 0.00 0.00 0.00 66 1009.9
20260504080511 41 259 10.0 20.0 0.00 0.00 0.00 65 1009.8
20260504050511 37 254 7.0 13.0 0.00 0.00 0.00 74 1009.8
20260504045511 37 259 8.0 13.0 0.00 0.00 0.00 74 1009.8
20260504045011 37 244 7.0 13.0 0.00 0.00 0.00 74 1009.8
20260504044540 37 282 8.0 13.0 0.00 0.00 0.00 73 1009.8
20260504044010 37 273 7.0 11.0 0.00 0.00 0.00 72 1009.8
20260504043511 37 236 6.0 13.0 0.00 0.00 0.00 71 1009.7
20260504043030 38 254 7.0 13.0 0.00 0.00 0.00 71 1009.8
20260504042512 38 275 8.0 13.0 0.00 0.00 0.00 72 1009.8
20260504042011 38 279 8.0 12.0 0.00 0.00 0.00 72 1009.7
20260504041531 38 268 8.0 12.0 0.00 0.00 0.00 71 1009.6
20260504041013 38 257 7.0 12.0 0.00 0.00 0.00 71 1009.5
20260504040514 38 257 8.0 12.0 0.00 0.00 0.00 71 1009.5
20260504040044 39 248 6.0 11.0 0.00 0.00 0.00 70 1009.5
20260504035511 39 281 5.0 11.0 0.00 0.00 0.00 70 1009.5
20260504035012 39 251 5.0 13.0 0.00 0.00 0.00 70 1009.5
20260504034531 39 271 8.0 15.0 0.00 0.00 0.00 70 1009.4
20260504034011 39 277 8.0 15.0 0.00 0.00 0.00 70 1009.3
20260504033512 39 263 8.0 15.0 0.00 0.00 0.00 70 1009.3
20260504033028 39 271 6.0 12.0 0.00 0.00 0.00 70 1009.2
20260504032511 39 278 8.0 12.0 0.00 0.00 0.00 70 1009.2
20260504032016 39 272 8.0 13.0 0.00 0.00 0.00 70 1009.2
20260504031531 39 286 8.0 13.0 0.00 0.00 0.00 70 1009.2
20260504031011 39 271 9.0 13.0 0.00 0.00 0.00 70 1009.2
20260504030511 39 267 8.0 15.0 0.00 0.00 0.00 70 1009.2
20260504030029 39 281 9.0 15.0 0.00 0.00 0.00 70 1009.3
20260504025510 39 288 9.0 16.0 0.00 0.00 0.00 70 1009.2
20260504025013 39 281 11.0 17.0 0.00 0.00 0.00 70 1009.2
20260504024530 39 265 10.0 17.0 0.00 0.00 0.00 71 1009.1
20260504024013 39 282 9.0 15.0 0.00 0.00 0.00 70 1009.2
20260504023514 39 242 9.0 15.0 0.00 0.00 0.00 71 1009.1
20260504023028 39 256 9.0 14.0 0.00 0.00 0.00 71 1009.1
20260504022514 39 267 9.0 14.0 0.00 0.00 0.00 71 1009.1
20260504022012 39 269 9.0 14.0 0.00 0.00 0.00 71 1009.2
20260504021528 39 252 7.0 12.0 0.00 0.00 0.00 70 1009.2
20260504021012 39 276 7.0 10.0 0.00 0.00 0.00 69 1009.2
20260504020511 39 266 6.0 10.0 0.00 0.00 0.00 69 1009.2
20260504020029 40 274 7.0 11.0 0.00 0.00 0.00 69 1009.2
20260504015513 40 265 6.0 12.0 0.00 0.01 0.00 69 1009.3
20260504015013 40 280 5.0 12.0 0.00 0.01 0.00 68 1009.3
20260504014534 40 243 7.0 13.0 0.00 0.01 0.00 68 1009.2
20260504014012 40 287 7.0 13.0 0.00 0.01 0.00 68 1009.2
20260504013511 40 279 7.0 11.0 0.00 0.01 0.00 67 1009.3
20260504013040 40 273 7.0 14.0 0.00 0.01 0.00 68 1009.3
20260504012516 40 271 8.0 14.0 0.00 0.01 0.00 68 1009.2
20260504012013 40 284 6.0 13.0 0.00 0.01 0.00 67 1009.1
20260504011528 41 291 7.0 13.0 0.00 0.01 0.00 66 1009.1
20260504011013 41 281 8.0 13.0 0.00 0.01 0.00 66 1009.0
20260504010516 41 262 6.0 16.0 0.00 0.01 0.00 66 1009.0
20260504010030 41 302 7.0 16.0 0.00 0.01 0.00 65 1008.9
20260504005512 41 315 8.0 16.0 0.00 0.04 0.00 64 1008.8
20260504005013 41 303 8.0 17.0 0.00 0.04 0.00 65 1008.8
20260504004528 41 280 7.0 17.0 0.00 0.04 0.00 65 1008.7
20260504004012 41 282 7.0 13.0 0.00 0.04 0.00 64 1008.6
20260504003513 42 301 7.0 12.0 0.00 0.04 0.00 64 1008.5
20260504003032 42 304 4.0 13.0 0.00 0.04 0.00 63 1008.5
20260504002511 42 294 6.0 13.0 0.00 0.04 0.00 63 1008.5
20260504002010 42 273 7.0 15.0 0.00 0.04 0.00 62 1008.5
20260504001531 42 305 9.0 15.0 0.00 0.04 0.00 62 1008.4
20260504001013 42 284 8.0 16.0 0.00 0.04 0.00 62 1008.3
20260504000514 43 325 9.0 16.0 0.00 0.04 0.00 62 1008.2
20260504000030 43 286 7.0 14.0 0.00 0.04 0.00 61 1008.1
20260503235510 43 298 6.0 15.0 0.00 0.06 0.00 61 1008.0
20260503235013 44 311 7.0 17.0 0.00 0.06 0.00 58 1007.9
20260503234531 44 312 8.0 19.0 0.00 0.06 0.00 58 1007.9
20260503234011 44 315 9.0 23.0 0.00 0.06 0.00 57 1007.9
20260503233511 44 352 7.0 23.0 0.00 0.06 0.00 58 1007.7
20260503233034 45 330 10.0 23.0 0.00 0.06 0.00 56 1007.7
20260503232512 45 342 9.0 22.0 0.00 0.06 0.00 57 1007.7
20260503232012 45 307 12.0 22.0 0.00 0.06 0.00 56 1007.6
20260503231527 45 308 11.0 24.0 0.00 0.06 0.00 55 1007.5
20260503231012 46 323 9.0 28.0 0.00 0.06 0.00 56 1007.6
20260503230513 46 314 16.0 28.0 0.00 0.06 0.00 54 1007.4
20260503230029 46 311 14.0 26.0 0.00 0.06 0.00 53 1007.3
20260503225515 47 251 13.0 23.0 0.00 0.08 0.00 55 1007.3
20260503225011 47 277 12.0 25.0 0.00 0.08 0.00 54 1007.3
20260503224531 47 297 10.0 27.0 0.00 0.08 0.00 55 1007.2
20260503224018 47 304 17.0 28.0 0.00 0.08 0.00 52 1007.1
20260503223512 48 319 14.0 28.0 0.00 0.08 0.00 52 1007.0
20260503223028 48 293 16.0 28.0 0.00 0.08 0.00 51 1006.9
20260503222510 48 316 12.0 26.0 0.00 0.08 0.00 52 1007.0
20260503222012 48 323 13.0 27.0 0.00 0.08 0.00 52 1006.9
20260503221531 47 319 16.0 29.0 0.00 0.08 0.00 53 1006.8
20260503221010 48 315 15.0 29.0 0.00 0.08 0.00 51 1006.8
20260503220510 48 321 14.0 29.0 0.00 0.08 0.00 52 1006.6
20260503220028 48 302 8.0 21.0 0.00 0.08 0.00 53 1006.6
20260503215511 47 329 11.0 21.0 0.00 0.13 0.00 54 1006.5
20260503215016 47 306 14.0 22.0 0.00 0.13 0.00 55 1006.5
20260503214531 47 328 10.0 24.0 0.00 0.13 0.00 55 1006.4
20260503214011 48 321 14.0 24.0 0.00 0.13 0.00 55 1006.4
20260503213511 48 327 14.0 23.0 0.00 0.13 0.00 53 1006.4
20260503213039 48 348 13.0 21.0 0.00 0.13 0.00 54 1006.1
20260503212512 48 333 6.0 24.0 0.00 0.13 0.00 56 1006.4
20260503212010 47 283 13.0 24.0 0.00 0.13 0.00 55 1006.3
20260503211535 47 317 14.0 25.0 0.00 0.13 0.00 55 1006.3
20260503211011 48 299 12.0 25.0 0.00 0.13 0.00 55 1006.2
20260503210510 48 360 8.0 18.0 0.00 0.13 0.00 57 1006.1
20260503210030 48 341 8.0 22.0 0.00 0.13 0.00 57 1005.9
20260503205512 48 294 14.0 22.0 0.00 0.19 0.00 56 1006.0
20260503205015 48 309 8.0 20.0 0.00 0.19 0.00 56 1005.9
20260503204532 49 298 8.0 16.0 0.00 0.19 0.00 57 1005.9
20260503204013 49 281 8.0 16.0 0.00 0.19 0.00 55 1005.9
20260503203511 49 298 7.0 21.0 0.00 0.19 0.00 54 1005.8
20260503203029 50 281 10.0 21.0 0.00 0.19 0.00 54 1005.8
20260503202510 49 281 11.0 28.0 0.00 0.19 0.00 54 1005.8
20260503202012 49 360 14.0 28.0 0.00 0.19 0.00 55 1005.8
20260503201529 49 327 14.0 24.0 0.00 0.19 0.00 56 1005.8
20260503201012 49 306 12.0 24.0 0.00 0.19 0.00 58 1005.8
20260503200513 49 317 12.0 24.0 0.00 0.19 0.00 57 1005.8
20260503200033 49 336 10.0 22.0 0.00 0.19 0.00 56 1005.7
20260503195512 49 325 13.0 22.0 0.00 0.24 0.00 57 1005.7
20260503195012 49 295 13.0 22.0 0.00 0.24 0.00 56 1005.7
20260503194532 49 299 9.0 24.0 0.00 0.24 0.00 58 1005.8
20260503194011 49 299 10.0 24.0 0.00 0.24 0.00 58 1005.8
20260503193511 49 315 13.0 24.0 0.00 0.24 0.00 57 1005.9
20260503193028 50 317 11.0 24.0 0.00 0.24 0.00 57 1005.8
20260503192512 50 281 10.0 17.0 0.00 0.24 0.00 57 1005.8
20260503192011 49 346 8.0 20.0 0.00 0.24 0.00 59 1005.9
20260503191533 49 360 11.0 21.0 0.00 0.24 0.00 60 1006.0
20260503191012 48 360 11.0 21.0 0.00 0.24 0.00 63 1006.0
20260503190510 48 321 10.0 21.0 0.00 0.24 0.00 64 1006.1
20260503190042 48 351 11.0 21.0 0.00 0.24 0.00 64 1006.2
20260503185511 47 322 9.0 26.0 0.00 0.30 0.00 64 1006.1
20260503185010 47 333 11.0 26.0 0.00 0.30 0.00 65 1006.1
20260503184531 47 317 14.0 26.0 0.00 0.30 0.00 64 1006.0
20260503184010 47 348 8.0 26.0 0.00 0.30 0.00 66 1006.2
20260503183512 47 360 9.0 28.0 0.00 0.30 0.00 68 1006.1